User: anonymous
Location: Arrakis Observatory
(44.1122°N, 95.7153°W)
Time: 08:57:29
(UTC-05:00)
Language:

Coronas F rocket - Orbit

View from above orbital plane
View from above orbital plane
View from above satellite
View from above satellite

Ground track
Ground track

The orbit data is extracted from the following two-line orbital elements,

1 26874U 01032B   14112.16650839  .00018953  00000-0  32194-3 0  6580
2 26874 082.4752 041.9549 0013380 256.1240 103.8523 15.51216178712610
Epoch (UTC): 22 April 2014 03:59:46
Eccentricity: 0.0013380
inclination: 82.4752°
perigee height: 404 km
apogee height: 422 km
right ascension of ascending node: 41.9549°
argument of perigee: 256.1240°
revolutions per day: 15.51216178
mean anomaly at epoch: 103.8523°
orbit number at epoch: 71261

The dashed part of the orbit path shows where the satellite is in the earth's shadow,  

DLR